Tracking 30298 objects as of 27-Apr-2025
HD Live streaming from Space Station
objects crossing your sky now

SL-14 R/B

Track SL-14 R/B now!
10-day predictions


NORAD ID: 23005
Int'l Code: 1994-011G
Perigee: 1,418.1 km
Apogee: 1,481.7 km
Inclination: 82.6 °
Period: 114.7 minutes
Semi major axis: 7820 km
RCS: 5.492 m2 (large)
Launch date: February 12, 1994
Source: Commonwealth of Independent States (former USSR) (CIS)
Launch site: PLESETSK MISSILE AND SPACE COMPLEX (PKMTR)

Note: This is a ROCKET BODY
Your satellite tracking list
Your tracking list is empty




NASA's NSSDC Master Catalog

Two Line Element Set (TLE):
1 23005U 94011G   25117.42020057  .00000034  00000-0  14519-3 0  9991
2 23005  82.5768 324.7600 0040617 324.7628  83.6034 12.55218048429599
Source of the keplerian elements: AFSPC